Location: Unspecified
(0.0000°N, 0.0000°E)
Time: 11:19:43
(UTC+00:00)

LightSail 2 - Pass Details

Date: 22 August 2019
Orbit: 696 x 730 km, 24.0° (Epoch: 07 December)

Event Time Altitude Azimuth Distance (km) Brightness Sun altitude
Exits shadow 03:26:27 14° 116° (ESE) 1,941 7.8 -38.2°
Drops below altitude 10° 03:27:08 10° 116° (ESE) 2,194 8.1 -38.0°
Enters shadow 04:32:35 -58° 297° (WNW) 11,630 11.3 -22.1°
Sets 05:14:44 0° 135° (SE) 3,139 9.0 -11.8°
